Location: Errabaliem
(16.8108°N, 80.4255°E)
Time: 07:44:49
(UTC+00:00)

SL-24 R/B - Pass Details

Date: 05 August 2024
Orbit: 503 x 987 km, 97.5° (Epoch: 10 September)

Event Time Altitude Azimuth Distance (km) Brightness Sun altitude
Exits shadow 14:51:10 78° 159° (SSE) 636 3.9 -23.5°
Maximum altitude 14:51:26 88° 77° (ENE) 628 3.9 -23.6°
Drops below altitude 10° 14:56:04 10° 350° (N) 2,140 7.3 -24.5°
Sets 14:58:29 0° 350° (N) 3,141 8.2 -25.1°
